EN

Hourly Weather Hyde

Today, 24 July, Saturday

Time Temperature Precipitation Wind Pressure Humidity
00:00 +14°C° 0 mm 3 mps 748 mmHg 85%
01:00 +14°C° 0 mm 3 mps 748 mmHg 84%
02:00 +14°C° 0 mm 3 mps 747 mmHg 82%
03:00 +14°C° 0 mm 4 mps 747 mmHg 81%
04:00 +14°C° 0 mm 4 mps 747 mmHg 81%
05:00 +14°C° 0 mm 4 mps 747 mmHg 81%
06:00 +14°C° 0 mm 5 mps 747 mmHg 82%
07:00 +15°C° 0 mm 5 mps 746 mmHg 78%
08:00 +16°C° 0 mm 5 mps 746 mmHg 73%
09:00 +16°C° 0 mm 5 mps 746 mmHg 69%
10:00 +19°C° 0 mm 5 mps 746 mmHg 65%
11:00 +20°C° 0 mm 5 mps 746 mmHg 61%
12:00 +21°C° 0 mm 4 mps 746 mmHg 57%
13:00 +21°C° 0 mm 4 mps 746 mmHg 57%
14:00 +21°C° 0 mm 4 mps 746 mmHg 56%
15:00 +21°C° 0 mm 4 mps 746 mmHg 56%
16:00 +21°C° 0 mm 4 mps 745 mmHg 58%
17:00 +20°C° 0 mm 4 mps 745 mmHg 61%
18:00 +20°C° 0 mm 3 mps 745 mmHg 63%
19:00 +18°C° 0 mm 3 mps 745 mmHg 69%
20:00 +17°C° 0 mm 3 mps 746 mmHg 75%
21:00 +15°C° 0 mm 2 mps 746 mmHg 81%
22:00 +15°C° 0 mm 2 mps 746 mmHg 84%
23:00 +14°C° 0 mm 2 mps 745 mmHg 87%

Tomorrow, 25 July, Sunday

Time Temperature Precipitation Wind Pressure Humidity
00:00 +14°C° 0 mm 2 mps 745 mmHg 90%
01:00 +13°C° 0 mm 2 mps 745 mmHg 90%
02:00 +13°C° 0 mm 2 mps 745 mmHg 90%
03:00 +13°C° 0 mm 2 mps 745 mmHg 91%
04:00 +13°C° 0 mm 2 mps 745 mmHg 89%
05:00 +14°C° 0 mm 2 mps 745 mmHg 87%
06:00 +14°C° 0 mm 2 mps 745 mmHg 85%
07:00 +15°C° 0 mm 2 mps 745 mmHg 78%
08:00 +17°C° 0 mm 2 mps 745 mmHg 72%
09:00 +18°C° 0 mm 2 mps 745 mmHg 65%
10:00 +20°C° 0 mm 2 mps 745 mmHg 60%
11:00 +21°C° 0 mm 2 mps 745 mmHg 55%
12:00 +23°C° 0 mm 2 mps 745 mmHg 51%
13:00 +24°C° 0 mm 2 mps 744 mmHg 49%
14:00 +24°C° 0 mm 2 mps 744 mmHg 48%
15:00 +25°C° 0 mm 2 mps 744 mmHg 46%
16:00 +24°C° 0 mm 2 mps 744 mmHg 49%
17:00 +24°C° 0 mm 2 mps 744 mmHg 52%
18:00 +24°C° 0 mm 2 mps 744 mmHg 55%
19:00 +21°C° 0 mm 2 mps 744 mmHg 62%
20:00 +19°C° 0 mm 2 mps 745 mmHg 68%
21:00 +18°C° 0 mm 1 mps 745 mmHg 75%
22:00 +18°C° 0 mm 1 mps 745 mmHg 78%
23:00 +16°C° 0 mm 1 mps 745 mmHg 81%

Day after tomorrow, 26 July, Monday

Time Temperature Precipitation Wind Pressure Humidity
00:00 +14°C° 0 mm 0 mps 745 mmHg 84%
01:00 +14°C° 0 mm 0 mps 745 mmHg 85%
02:00 +15°C° 0 mm 1 mps 745 mmHg 87%
03:00 +14°C° 0 mm 1 mps 745 mmHg 88%
04:00 +15°C° 0 mm 1 mps 745 mmHg 87%
05:00 +15°C° 0 mm 1 mps 745 mmHg 85%
06:00 +16°C° 0 mm 1 mps 745 mmHg 83%
07:00 +17°C° 0 mm 2 mps 745 mmHg 76%
08:00 +19°C° 0 mm 2 mps 745 mmHg 69%
09:00 +21°C° 0 mm 3 mps 745 mmHg 62%
10:00 +22°C° 0 mm 3 mps 745 mmHg 58%
11:00 +24°C° 0 mm 3 mps 744 mmHg 54%
12:00 +25°C° 0 mm 3 mps 744 mmHg 50%
13:00 +25°C° 0 mm 3 mps 744 mmHg 51%
14:00 +25°C° 0 mm 4 mps 744 mmHg 51%
15:00 +25°C° 0 mm 4 mps 744 mmHg 52%
16:00 +23°C° 0 mm 4 mps 744 mmHg 54%
17:00 +22°C° 0 mm 4 mps 744 mmHg 56%
18:00 +21°C° 0 mm 4 mps 744 mmHg 57%
19:00 +20°C° 0 mm 3 mps 744 mmHg 63%
20:00 +18°C° 0 mm 2 mps 744 mmHg 69%
21:00 +16°C° 0 mm 2 mps 744 mmHg 75%
22:00 +16°C° 0 mm 1 mps 744 mmHg 78%
23:00 +16°C° 0 mm 1 mps 744 mmHg 81%

27 July, Tuesday

Time Temperature Precipitation Wind Pressure Humidity
00:00 +15°C° 0 mm 1 mps 744 mmHg 84%
01:00 +15°C° 0 mm 1 mps 744 mmHg 86%
02:00 +15°C° 0 mm 1 mps 744 mmHg 87%
03:00 +14°C° 0 mm 1 mps 744 mmHg 89%
04:00 +15°C° 0 mm 1 mps 744 mmHg 87%
05:00 +15°C° 0 mm 1 mps 744 mmHg 86%
06:00 +16°C° 0 mm 1 mps 744 mmHg 85%
07:00 +17°C° 0 mm 2 mps 744 mmHg 78%
08:00 +19°C° 0 mm 2 mps 744 mmHg 71%
09:00 +20°C° 0 mm 2 mps 744 mmHg 65%
10:00 +21°C° 0.1 mm 2 mps 744 mmHg 62%
11:00 +23°C° 0.1 mm 2 mps 744 mmHg 60%
12:00 +23°C° 0.1 mm 2 mps 744 mmHg 58%
13:00 +23°C° 0.5 mm 2 mps 744 mmHg 59%
14:00 +23°C° 0.5 mm 2 mps 744 mmHg 61%
15:00 +23°C° 0.5 mm 2 mps 744 mmHg 62%
16:00 +23°C° 0.3 mm 2 mps 744 mmHg 65%
17:00 +21°C° 0.3 mm 2 mps 743 mmHg 68%
18:00 +20°C° 0.3 mm 2 mps 743 mmHg 70%
19:00 +19°C° 0.5 mm 2 mps 743 mmHg 77%
20:00 +19°C° 0.5 mm 1 mps 743 mmHg 83%
21:00 +18°C° 0.5 mm 1 mps 743 mmHg 90%
22:00 +16°C° 2.1 mm 1 mps 743 mmHg 92%
23:00 +16°C° 2.1 mm 1 mps 742 mmHg 95%

28 July, Wednesday

Time Temperature Precipitation Wind Pressure Humidity
00:00 +15°C° 2.1 mm 1 mps 742 mmHg 97%
01:00 +15°C° 2 mm 1 mps 742 mmHg 97%
02:00 +15°C° 2 mm 1 mps 741 mmHg 97%
03:00 +15°C° 2 mm 1 mps 741 mmHg 97%
04:00 +15°C° 0.1 mm 1 mps 741 mmHg 96%
05:00 +15°C° 0.1 mm 2 mps 740 mmHg 95%
06:00 +15°C° 0.1 mm 2 mps 740 mmHg 95%
07:00 +14°C° 0.2 mm 3 mps 740 mmHg 90%
08:00 +15°C° 0.2 mm 4 mps 740 mmHg 86%
09:00 +17°C° 0.2 mm 4 mps 740 mmHg 81%
10:00 +16°C° 0.7 mm 5 mps 740 mmHg 80%
11:00 +16°C° 0.7 mm 5 mps 740 mmHg 78%
12:00 +17°C° 0.7 mm 5 mps 740 mmHg 77%
13:00 +17°C° 1 mm 5 mps 740 mmHg 77%
14:00 +17°C° 1 mm 5 mps 739 mmHg 77%
15:00 +17°C° 1 mm 5 mps 739 mmHg 77%
16:00 +16°C° 0.6 mm 5 mps 739 mmHg 77%
17:00 +15°C° 0.6 mm 5 mps 739 mmHg 77%
18:00 +15°C° 0.6 mm 5 mps 739 mmHg 77%
19:00 +13°C° 0.1 mm 5 mps 739 mmHg 81%
20:00 +12°C° 0.1 mm 5 mps 739 mmHg 84%
21:00 +11°C° 0.1 mm 4 mps 740 mmHg 87%
22:00 +11°C° 0 mm 4 mps 739 mmHg 89%
23:00 +11°C° 0 mm 4 mps 739 mmHg 90%

29 July, Thursday

Time Temperature Precipitation Wind Pressure Humidity
00:00 +10°C° 0 mm 4 mps 739 mmHg 91%
01:00 +10°C° 0 mm 4 mps 739 mmHg 92%
02:00 +10°C° 0 mm 4 mps 739 mmHg 93%
03:00 +10°C° 0 mm 3 mps 739 mmHg 94%
04:00 +10°C° 0.2 mm 3 mps 738 mmHg 93%
05:00 +11°C° 0.2 mm 3 mps 738 mmHg 93%
06:00 +11°C° 0.2 mm 3 mps 738 mmHg 92%
07:00 +12°C° 0.1 mm 3 mps 738 mmHg 88%
08:00 +13°C° 0.1 mm 3 mps 738 mmHg 83%
09:00 +14°C° 0.1 mm 4 mps 738 mmHg 78%
10:00 +16°C° 0.1 mm 3 mps 738 mmHg 69%
11:00 +18°C° 0.1 mm 3 mps 738 mmHg 60%
12:00 +19°C° 0.1 mm 3 mps 738 mmHg 50%
13:00 +19°C° 0 mm 4 mps 738 mmHg 51%
14:00 +19°C° 0 mm 4 mps 738 mmHg 52%
15:00 +19°C° 0 mm 5 mps 738 mmHg 52%
16:00 +17°C° 0 mm 5 mps 739 mmHg 57%
17:00 +16°C° 0 mm 5 mps 739 mmHg 62%
18:00 +15°C° 0 mm 5 mps 739 mmHg 67%
19:00 +15°C° 0.1 mm 6 mps 740 mmHg 74%
20:00 +14°C° 0.1 mm 6 mps 740 mmHg 81%
21:00 +14°C° 0.1 mm 7 mps 740 mmHg 88%
22:00 +12°C° 0 mm 7 mps 741 mmHg 88%
23:00 +13°C° 0 mm 6 mps 741 mmHg 87%
Show more